Weather History for Augusta, GA

Change the Weather History Date:

Tuesday, July 23, 2013

  Actual Average Record
Temperature  
Mean Temperature 82 °F -  
Max Temperature 91 °F 89 °F 99 °F (2004)
Min Temperature 73 °F 70 °F 64 °F (2007)
Cooling Degree Days 17    
Month to date cooling degree days 330  
Year to date cooling degree days 1040  
Since 1 June cooling degree days 746  
Growing Degree Days 32 (Base 50)    
Moisture  
Dew Point 70 °F    
Average Humidity 72    
Maximum Humidity 87    
Minimum Humidity 47    
Precipitation  
Precipitation T in - - ()
Month to date precipitation 7.25  
Year to date precipitation 39.49  
Sea Level Pressure  
Sea Level Pressure 29.89 in    
Wind  
Wind Speed 6 mph (WSW)    
Max Wind Speed 14 mph    
Max Gust Speed 21 mph    
Visibility 10 miles    
Events      
Averages and records for this station are not official NWS values.
T = Trace of Precipitation, MM = Missing Value Source: NWS Daily Summary

Daily Weather History Graph

Daily Weather History Graph

Search for Another Location

Airport:

Trip Planner

Search our weather history database for the weather conditions in past years. The results will help you decide how hot, cold, wet, or windy it might be!

Date:

Astronomy

Jul. 23, 2013 Rise Set
Actual Time 6:34 AM EDT 8:34 PM EDT
Civil Twilight 6:06 AM EDT 9:02 PM EDT
Nautical Twilight 5:33 AM EDT 9:35 PM EDT
Astronomical Twilight 4:57 AM EDT 10:11 PM EDT
Moon 9:09 PM EDT 7:35 AM EDT
Length of Visible Light 14h 55m
Length of Day
13h 59m
Full, 99% of the Moon is Illuminated
Jul 23
Full
Jul 29
Last Quarter
Aug 6
New
Aug 14
First Quarter
Aug 20
Full

Hourly Weather History & Observations

Time (EDT) Temp. Heat Index Dew Point Humidity Pressure Visibility Wind Dir Wind Speed Gust Speed Precip Events Conditions
12:53 AM 75.9 °F - 71.1 °F 85% 29.93 in 10.0 mi Variable 4.6 mph - N/A   Mostly Cloudy
1:53 AM 75.9 °F - 70.0 °F 82% 29.91 in 10.0 mi SSW 8.1 mph - N/A   Mostly Cloudy
2:53 AM 75.0 °F - 70.0 °F 84% 29.91 in 10.0 mi SW 6.9 mph - N/A   Mostly Cloudy
3:53 AM 75.0 °F - 70.0 °F 84% 29.90 in 10.0 mi SW 6.9 mph - N/A   Overcast
4:27 AM 73.4 °F - 69.8 °F 88% 29.92 in 10.0 mi Variable 4.6 mph - N/A   Scattered Clouds
4:53 AM 73.9 °F - 70.0 °F 87% 29.91 in 10.0 mi WSW 4.6 mph - N/A   Partly Cloudy
5:49 AM 73.4 °F - 69.8 °F 88% 29.93 in 10.0 mi Variable 5.8 mph - N/A   Mostly Cloudy
5:53 AM 73.9 °F - 70.0 °F 87% 29.92 in 10.0 mi Variable 5.8 mph - N/A   Mostly Cloudy
6:09 AM 73.4 °F - 69.8 °F 88% 29.94 in 10.0 mi Variable 6.9 mph - N/A   Scattered Clouds
6:53 AM 73.0 °F - 70.0 °F 90% 29.93 in 10.0 mi Variable 4.6 mph - N/A   Clear
7:53 AM 75.0 °F - 69.1 °F 82% 29.93 in 10.0 mi Variable 3.5 mph - N/A   Partly Cloudy
8:53 AM 77.0 °F - 69.1 °F 76% 29.92 in 10.0 mi Variable 6.9 mph - N/A   Scattered Clouds
9:53 AM 79.0 °F - 69.1 °F 72% 29.93 in 10.0 mi Variable 5.8 mph - N/A   Partly Cloudy
10:53 AM 82.9 °F 86.5 °F 69.1 °F 63% 29.93 in 10.0 mi WNW 8.1 mph - N/A   Partly Cloudy
11:53 AM 84.9 °F 88.2 °F 68.0 °F 57% 29.93 in 10.0 mi West 4.6 mph - N/A   Partly Cloudy
12:53 PM 86.0 °F 89.4 °F 68.0 °F 55% 29.92 in 10.0 mi Variable 6.9 mph - N/A   Partly Cloudy
1:53 PM 88.0 °F 90.3 °F 66.0 °F 48% 29.89 in 10.0 mi West 10.4 mph 16.1 mph N/A   Scattered Clouds
2:53 PM 89.1 °F 92.1 °F 66.9 °F 48% 29.87 in 10.0 mi West 8.1 mph 16.1 mph N/A   Scattered Clouds
3:53 PM 90.0 °F 93.6 °F 68.0 °F 48% 29.84 in 10.0 mi West 8.1 mph - N/A   Partly Cloudy
4:53 PM 90.0 °F 95.4 °F 70.0 °F 52% 29.83 in 10.0 mi West 4.6 mph - N/A   Partly Cloudy
5:53 PM 89.1 °F 94.1 °F 70.0 °F 53% 29.82 in 10.0 mi WSW 8.1 mph - N/A   Scattered Clouds
6:53 PM 84.9 °F 90.7 °F 72.0 °F 65% 29.83 in 10.0 mi SW 8.1 mph - 0.00 in   Mostly Cloudy
7:53 PM 82.9 °F 88.0 °F 72.0 °F 69% 29.82 in 10.0 mi SW 3.5 mph - N/A   Clear
8:53 PM 82.0 °F 86.7 °F 72.0 °F 71% 29.85 in 10.0 mi Variable 3.5 mph - N/A   Clear
9:53 PM 81.0 °F 85.2 °F 72.0 °F 74% 29.85 in 10.0 mi SW 3.5 mph - N/A   Clear
10:53 PM 80.1 °F 83.8 °F 72.0 °F 76% 29.85 in 10.0 mi Calm Calm - N/A   Clear
11:53 PM 79.0 °F - 72.0 °F 79% 29.84 in 10.0 mi SW 3.5 mph - N/A   Clear